Location: Asheville, NC
(35.6000°N, 82.5500°W)
Time: 03:22:15
(UTC-04:00)

BEESAT 2 - Pass Details

Date: 10 March 2018
Orbit: 502 x 533 km, 64.9° (Epoch: 19 June)

Event Time Altitude Azimuth Distance (km) Brightness Sun altitude
Rises 06:05:53 0° 338° (NNW) 2,679 ? -9.4°
Reaches altitude 10° 06:08:12 10° 346° (NNW) 1,782 ? -8.9°
Maximum altitude 06:11:58 39° 56° (NE) 802 ? -8.1°
Drops below altitude 10° 06:15:41 10° 127° (SE) 1,759 ? -7.4°
Sets 06:17:57 0° 135° (SE) 2,639 ? -6.9°
